Dewpoint
69 70 70 70 70 70 70 70 70 69 69 69 68 68 68 68 68 69 70 70 70 71 71 71 71 71 70 69 69 68 67 68 68 68 68 67 67 66 66 65 65 65 64 65 65 66 67 65 61 56 52 52 52 52 53 56 57 57 56 57 57 58 58 60 60 60 60 61 61 61 61 61 61 62 62 62 62 61 61 60 60 59 58 58 58 58 59 59 59 59 59 59 59 58 58 58 58 58 58 58 58 58 57
70 70 70 70 70 70 69 69 70 70 70 70 69 69 69 68 69 69 70 70 70 71 71 71 71 70 70 69 68 68 68 68 68 68 67 67 66 66 65 65 65 65 65 65 66 67 67 64 59 55 52 53 53 53 53 56 56 57 57 57 58 60 61 61 61 61 60 60 60 61 61 61 62 62 62 62 61 61 61 60 60 59 58 58 58 58 59 60 60 60 59 59 59 59 59 59 59 58 58 58 58 57 57
70 70 70 70 70 70 69 69 69 70 70 70 70 70 69 69 69 70 70 70 70 71 71 71 70 70 69 68 68 68 68 68 68 67 67 67 66 65 65 65 65 65 65 65 66 66 67 65 60 54 53 52 52 53 53 55 56 56 57 58 59 60 61 61 61 61 60 60 59 59 60 61 61 62 62 62 61 61 60 60 59 59 58 58 58 58 59 60 60 60 60 59 59 59 59 59 58 58 58 57 57 57 56
70 70 70 70 70 70 70 69 69 69 69 70 70 70 69 69 69 69 70 70 70 70 70 70 70 70 69 68 67 67 68 68 68 67 67 66 65 65 65 65 65 65 65 66 66 66 65 64 60 55 53 52 52 53 54 56 56 56 56 58 59 60 61 61 61 61 60 60 59 59 59 60 61 62 62 61 61 61 60 59 59 58 58 57 57 57 58 59 59 59 59 59 59 59 58 58 58 57 57 56 56 56 56
70 70 71 71 70 70 70 69 69 69 69 70 70 70 69 69 69 69 70 70 70 70 70 70 70 70 69 68 68 67 68 67 67 67 67 66 65 65 65 65 65 65 65 66 66 65 63 62 59 55 53 53 53 53 54 57 57 56 56 57 59 60 61 61 61 60 60 60 59 58 58 60 61 61 61 61 61 60 60 59 58 58 57 57 56 56 57 57 58 58 58 58 58 58 57 57 57 56 56 56 55 55 54
70 71 71 71 70 70 70 70 70 69 69 70 70 70 69 69 69 69 69 70 70 70 70 70 70 69 69 69 68 67 67 67 67 67 66 66 65 65 65 65 65 65 65 66 66 66 64 60 56 53 52 52 52 53 54 56 56 56 56 57 59 61 61 60 60 60 60 59 59 58 58 59 60 61 61 61 61 60 60 59 58 58 57 56 56 56 56 56 56 57 57 57 57 57 56 56 56 56 55 55 54 54 54
70 71 71 70 70 70 70 70 70 70 70 70 70 70 69 69 69 69 69 70 70 70 70 70 70 69 69 68 68 68 67 67 67 67 66 66 65 65 65 65 65 65 66 66 66 66 65 61 57 54 52 52 52 52 54 56 56 56 56 58 60 61 61 60 60 59 59 59 59 58 59 60 61 61 61 61 61 60 60 59 58 58 57 56 56 55 55 55 55 55 56 56 56 56 56 55 55 54 54 54 55 55 55
70 70 70 70 70 70 70 70 70 70 70 70 70 70 70 70 70 70 70 70 70 70 71 70 70 69 69 68 68 68 67 67 67 66 66 66 65 65 65 65 65 65 66 66 66 66 66 63 59 56 53 53 53 52 53 56 56 56 57 60 61 61 61 60 59 59 59 58 58 58 59 59 60 61 61 61 61 60 60 59 58 57 57 56 56 55 54 54 54 54 54 55 55 55 55 54 54 54 54 54 55 55 56
70 70 70 70 70 70 70 70 70 70 70 70 70 70 70 70 70 70 70 70 70 70 71 70 70 69 69 68 68 67 67 67 67 66 66 66 65 65 65 65 65 66 66 66 66 67 67 63 60 56 54 54 53 53 54 55 56 57 58 60 61 61 61 60 59 59 59 58 58 58 58 58 59 60 61 61 61 60 60 59 58 57 57 56 56 55 54 53 53 52 52 53 53 53 54 54 54 54 54 55 55 56 56
70 70 70 70 70 69 69 69 69 69 69 70 70 70 70 70 70 70 70 69 70 70 71 71 70 70 69 69 68 67 67 67 67 66 66 66 65 65 65 65 66 66 66 66 66 66 67 63 60 57 55 53 54 55 56 56 56 57 58 61 61 61 61 60 60 59 58 58 58 57 57 58 58 59 59 59 59 59 59 58 58 57 56 56 56 55 55 54 53 52 52 52 52 52 53 54 54 55 56 56 56 56 56
70 70 70 70 70 69 68 68 68 68 68 69 70 70 70 70 70 70 70 70 70 70 70 70 70 70 69 69 68 67 67 67 67 66 66 66 66 66 66 66 66 66 66 66 66 66 66 62 60 57 56 54 55 56 56 57 58 58 59 61 61 61 61 60 60 59 59 58 58 57 57 57 57 58 57 57 57 57 57 57 57 56 56 56 55 55 55 54 53 53 52 52 51 52 52 53 54 55 56 56 56 56 56
70 70 70 70 70 69 68 68 67 67 67 68 69 70 70 70 69 69 70 70 70 70 70 70 70 70 70 69 68 68 67 67 67 66 66 66 66 66 66 66 66 66 66 66 66 66 65 61 59 57 56 54 55 56 56 57 58 59 60 61 62 61 61 60 60 59 59 59 58 58 57 57 57 57 57 56 56 56 56 56 56 56 56 55 55 55 55 54 54 53 53 52 52 52 52 53 53 54 55 55 56 56 56
70 70 70 70 69 69 68 67 67 67 68 68 69 70 70 70 69 69 70 70 70 70 70 70 70 70 70 69 68 68 68 67 67 67 66 66 66 66 66 66 66 66 66 66 65 65 62 60 58 57 55 55 56 56 57 58 58 59 61 62 62 61 61 61 60 60 59 59 59 58 58 57 57 57 56 56 56 56 56 56 55 55 55 54 54 54 54 54 54 53 53 53 52 52 52 53 53 53 54 54 55 55 56
70 70 69 69 69 68 68 67 67 67 68 69 70 70 70 69 69 70 70 70 70 70 70 70 70 70 70 70 69 68 68 67 67 67 67 67 67 66 66 66 66 66 66 65 64 61 60 59 58 56 55 56 57 58 59 58 58 60 62 62 62 62 61 61 60 60 60 59 59 59 58 58 57 57 57 56 56 56 55 55 54 54 54 54 54 54 53 53 53 53 53 53 53 53 53 53 53 53 53 54 54 54 55
70 69 69 68 68 68 68 67 67 68 68 69 70 70 70 70 70 70 70 70 70 70 70 70 70 70 70 70 69 69 68 68 68 68 67 67 67 67 67 67 66 66 66 64 61 60 59 59 58 56 55 57 58 58 59 59 59 60 62 62 62 61 61 61 60 60 60 60 60 59 59 59 58 58 57 57 56 56 55 55 54 54 54 54 53 53 53 53 53 52 53 53 53 53 53 54 54 54 54 54 54 54 55
69 68 68 68 68 68 67 68 68 68 69 69 70 70 70 70 70 70 70 70 70 70 70 70 70 70 70 70 69 69 69 68 68 68 68 68 68 68 67 67 66 66 65 62 61 59 58 58 57 56 57 57 57 57 58 59 60 61 62 62 62 61 61 61 60 60 60 60 60 60 60 60 59 59 58 58 57 56 56 56 55 55 54 54 54 54 53 53 53 53 53 53 54 54 54 55 55 55 55 55 55 56 56
68 68 67 67 67 67 67 67 68 68 69 69 70 70 70 70 70 70 70 70 70 70 70 70 70 70 70 69 69 69 68 68 68 68 68 68 68 68 68 67 66 65 63 61 61 59 58 57 56 56 57 57 57 58 59 59 61 62 62 62 61 61 61 61 60 60 60 60 60 60 60 60 60 59 59 58 58 58 57 57 56 56 56 56 55 55 55 55 54 54 55 55 55 55 56 56 56 56 56 56 56 56 56
67 67 67 67 67 67 67 67 68 68 69 69 69 69 70 70 70 70 70 70 70 70 70 70 70 70 69 69 69 68 68 67 67 67 68 68 68 68 68 67 66 64 62 61 60 59 58 57 56 56 57 56 57 58 59 60 61 62 62 61 62 62 61 61 61 60 59 60 60 60 61 61 60 60 60 59 59 59 58 58 58 57 57 57 57 56 56 56 56 56 56 56 56 56 56 57 57 57 57 57 57 57 57
67 67 67 67 67 66 66 67 67 68 68 68 69 69 69 70 70 70 70 69 70 70 70 70 70 69 69 69 68 67 67 67 66 65 66 67 67 67 67 66 65 63 61 60 59 59 58 57 56 56 57 56 57 58 60 61 61 62 61 62 62 62 62 61 61 60 59 60 60 60 61 61 61 61 60 60 60 60 60 59 59 59 59 59 58 58 58 58 57 57 57 57 57 57 57 58 58 58 58 58 58 58 58
67 67 67 67 67 66 66 66 67 67 68 68 68 69 69 69 70 70 69 69 70 70 70 70 69 69 69 68 67 66 66 66 65 65 65 65 66 66 65 65 63 62 60 59 58 58 57 56 56 56 57 56 56 58 60 61 62 62 61 62 62 62 62 61 61 60 60 60 60 60 60 61 61 61 61 61 61 61 60 60 60 60 60 60 60 60 59 59 59 59 59 59 59 58 59 59 59 59 59 59 59 59 59
67 67 67 67 67 66 66 66 66 67 67 68 68 68 68 69 69 69 69 69 70 70 70 69 69 68 67 67 66 66 66 66 65 64 63 64 64 65 64 63 61 60 59 58 57 57 56 56 56 56 56 56 56 57 60 61 63 63 62 62 62 62 62 62 61 61 60 60 60 60 60 61 61 61 61 61 61 61 61 61 61 61 61 61 61 61 61 61 61 60 60 60 60 60 60 60 60 60 60 60 60 60 60
68 67 67 67 66 66 65 65 65 65 66 67 67 67 67 68 68 69 69 69 69 69 69 69 68 67 66 66 66 66 66 66 65 64 63 62 62 63 62 61 60 59 58 58 57 56 56 56 56 56 56 56 56 56 59 62 63 63 62 62 62 62 62 62 61 61 61 60 60 60 60 61 61 61 61 61 61 61 61 61 61 61 61 61 61 61 61 61 61 61 61 61 61 61 61 61 61 61 61 61 61 61 61
68 68 68 67 66 65 65 64 64 64 64 65 65 65 67 67 67 68 68 68 68 68 68 67 67 66 65 65 65 65 65 65 65 63 62 62 61 61 61 60 60 59 58 57 57 56 56 56 56 56 56 56 56 56 60 63 64 63 62 62 62 62 62 62 62 61 61 61 61 61 61 61 61 61 61 61 61 61 61 61 61 62 62 62 62 62 62 62 62 62 62 62 62 62 62 62 62 63 63 63 63 62 62
68 68 67 67 67 66 64 63 63 63 63 65 64 64 65 66 67 67 67 67 67 67 66 66 65 65 65 65 64 64 63 64 63 63 61 61 61 61 61 60 59 59 58 57 57 56 56 57 57 56 56 56 56 57 61 64 65 64 63 63 63 63 62 62 62 61 61 61 61 61 61 61 61 61 61 61 61 61 61 61 62 62 62 62 63 63 63 62 62 62 62 62 63 63 63 63 63 64 64 64 64 64 63
67 67 66 67 67 66 65 63 62 62 62 63 63 63 64 65 66 66 67 67 67 66 65 65 64 64 64 63 63 62 61 62 62 62 61 61 61 60 60 60 59 58 58 57 56 56 56 57 57 57 56 56 56 58 62 64 65 65 64 63 63 63 62 62 62 61 61 61 62 62 62 62 62 61 61 61 61 61 61 62 62 62 63 63 63 63 63 63 63 63 63 63 63 63 63 64 64 64 65 65 65 65 64
67 67 66 66 67 67 66 64 62 61 61 62 62 62 63 65 66 66 67 67 67 66 65 64 63 62 62 62 62 61 60 61 61 61 61 61 60 59 59 59 59 58 57 57 56 56 56 57 57 57 57 56 56 58 62 64 65 65 65 64 63 63 62 62 62 61 61 61 61 62 62 62 62 62 62 62 62 62 62 62 62 62 62 63 63 63 63 63 63 63 63 63 63 63 64 64 64 65 65 65 65 65 65
67 66 66 66 67 67 68 65 63 61 61 62 62 61 62 65 65 66 66 66 66 66 66 65 65 64 63 62 61 60 60 59 60 60 60 60 59 58 58 57 57 57 56 56 56 55 56 56 57 57 57 57 56 58 61 63 65 65 65 64 64 63 63 62 62 62 61 61 61 61 61 61 61 61 62 62 62 62 62 62 61 61 61 62 62 62 62 62 63 63 63 63 63 64 64 64 65 65 65 65 65 66 66
66 66 66 66 66 67 67 66 64 61 60 61 61 61 61 64 65 65 66 66 66 66 66 66 66 66 66 64 62 60 59 59 59 59 59 58 58 57 56 56 56 56 55 55 55 55 55 56 56 57 57 56 56 57 61 63 64 65 65 65 64 64 63 62 62 62 62 61 61 61 61 61 61 61 61 61 61 61 61 61 61 61 61 61 61 61 61 61 61 62 62 62 63 63 64 64 65 65 65 65 66 66 67
66 66 66 66 66 67 67 67 65 62 60 61 61 61 60 63 65 65 65 65 66 66 66 66 66 66 66 66 65 63 61 59 58 58 57 57 56 56 56 55 54 54 54 54 54 54 54 56 56 56 56 56 56 57 59 62 63 64 64 64 64 64 64 63 62 62 62 62 61 61 61 61 61 61 61 61 61 61 61 61 61 61 61 61 61 61 61 61 61 61 61 61 62 62 63 64 64 65 65 66 66 66 67
66 65 65 65 66 66 67 66 64 62 60 61 61 60 59 62 64 64 65 65 65 66 66 66 66 65 66 65 65 65 63 61 59 57 56 56 55 55 54 54 53 53 53 53 53 53 54 55 56 56 56 56 56 56 58 61 63 64 64 64 64 64 64 63 63 63 62 62 62 61 61 61 61 61 60 60 60 60 60 60 61 61 61 61 61 61 61 61 61 61 61 61 61 61 61 62 63 64 65 65 65 66 66
65 65 65 65 65 65 65 64 62 60 60 60 60 60 59 62 64 64 64 65 65 65 65 65 65 65 65 65 65 64 63 61 59 56 55 54 53 53 53 52 52 52 52 52 52 53 53 54 55 56 56 56 55 56 56 60 61 63 63 63 63 64 64 64 63 63 63 62 62 61 61 61 61 61 60 60 60 60 60 61 61 61 61 61 61 61 61 61 61 61 61 61 61 61 61 61 61 61 62 62 62 63 64
65 65 65 65 64 63 63 62 61 60 60 60 59 59 58 61 63 64 64 65 65 65 65 65 65 65 65 64 63 62 61 60 58 55 53 53 52 52 52 52 51 51 52 52 52 52 53 53 53 54 55 55 55 55 55 57 60 61 63 63 63 63 63 64 64 63 63 62 62 61 61 61 61 61 61 60 60 60 60 60 60 60 61 61 61 61 61 61 61 61 61 61 61 61 61 61 61 61 61 61 61 61 62
65 65 65 64 63 62 61 61 60 59 59 59 59 58 57 60 62 63 63 64 64 65 65 65 65 64 64 63 62 60 59 58 56 55 53 52 52 52 52 51 51 50 51 51 52 52 52 53 52 52 53 53 54 54 54 55 57 59 62 62 62 62 63 63 63 63 63 62 62 62 61 61 61 61 61 60 60 60 60 60 60 60 60 61 61 61 61 61 61 61 61 60 60 61 61 61 61 61 61 61 61 61 61
65 65 65 63 62 61 61 60 60 59 59 59 58 57 56 58 61 63 63 63 63 64 64 64 64 63 63 62 61 61 59 57 56 56 54 53 52 52 52 52 51 50 50 50 51 51 52 52 52 52 52 52 52 52 52 52 54 56 59 61 61 62 62 62 63 63 63 62 62 62 61 61 61 61 61 61 60 60 60 60 60 60 60 60 61 61 61 61 60 60 60 60 60 60 61 61 61 61 61 61 61 61 61
65 64 64 63 63 62 61 61 60 60 59 59 58 57 56 56 59 61 62 62 62 63 63 63 63 62 61 61 61 60 60 58 56 56 55 54 53 53 52 52 52 51 50 49 50 50 51 52 52 52 52 52 51 52 52 51 52 53 56 59 60 61 62 62 62 62 62 62 62 61 61 61 61 61 61 60 60 60 60 60 60 60 60 60 60 60 60 60 60 60 60 60 60 60 60 60 60 60 61 61 61 61 61
65 64 64 63 63 63 63 62 61 61 60 59 58 57 56 55 57 59 61 62 62 62 61 61 61 61 60 60 60 59 59 58 57 56 56 54 54 53 52 52 51 51 50 49 49 49 50 51 51 51 51 50 50 50 50 50 50 51 52 56 57 58 60 60 61 61 61 61 61 61 61 61 60 60 60 60 60 60 60 60 60 60 60 60 60 60 60 60 60 60 60 60 60 60 60 60 60 60 60 60 61 61 61
64 64 63 63 63 63 63 62 61 61 59 59 58 57 56 56 57 59 61 61 61 61 61 61 61 61 60 60 59 58 58 57 56 56 56 55 54 53 52 51 51 50 50 50 50 50 49 49 49 50 49 49 49 49 49 49 49 49 50 52 54 55 56 56 57 59 60 61 61 60 60 60 60 60 60 60 60 60 59 59 59 59 59 59 59 59 59 59 59 59 59 59 59 59 59 59 59 60 60 60 60 60 60
64 64 63 63 63 63 62 62 62 61 59 59 58 57 56 58 59 60 60 61 61 61 61 61 61 61 61 60 59 58 57 56 55 55 54 54 53 52 52 51 50 50 50 50 50 50 49 48 48 48 48 48 48 48 47 48 48 48 48 50 51 52 54 54 54 55 57 59 60 60 60 60 59 59 59 59 59 59 59 59 58 58 58 58 58 58 58 58 58 58 59 59 59 59 59 59 59 59 59 59 60 60 60
64 64 64 63 63 62 62 63 63 62 60 60 59 59 58 60 60 60 60 60 60 61 61 61 61 61 61 60 59 58 58 56 55 54 53 53 52 52 52 52 51 50 50 50 50 50 49 48 48 48 48 47 47 47 47 47 47 47 47 48 49 50 52 52 52 52 53 56 58 59 60 60 60 59 59 59 58 58 58 58 58 58 58 58 57 57 57 57 57 58 58 58 58 58 58 59 59 59 59 59 60 60 60
64 64 64 63 63 62 62 62 61 61 60 60 59 59 58 60 60 60 60 60 60 60 61 61 61 60 60 59 58 58 57 56 55 54 53 52 52 52 52 52 51 50 50 50 50 49 49 48 48 47 47 47 47 47 47 47 47 47 47 47 47 47 48 49 50 50 50 53 55 57 59 60 60 60 59 59 58 58 58 58 58 58 57 57 57 57 57 57 57 57 57 58 58 58 58 59 59 59 59 60 60 60 60
64 64 64 63 62 62 62 61 61 60 60 59 58 58 59 60 60 60 59 59 60 60 60 60 60 59 59 59 58 57 56 56 55 54 54 53 52 52 51 51 51 50 50 50 50 49 49 48 48 47 47 46 46 46 47 47 47 47 46 46 45 45 46 47 48 49 48 50 52 55 57 59 60 60 60 59 59 59 59 59 59 59 58 57 57 57 57 57 58 58 58 58 58 59 59 59 60 60 60 60 60 61 61
63 63 63 63 62 62 62 61 61 60 59 59 58 58 59 60 60 59 59 59 59 59 59 59 59 59 58 58 57 57 56 56 55 55 54 53 52 52 51 51 51 50 50 50 50 49 49 49 48 48 47 46 46 46 47 47 47 47 46 46 45 45 46 47 47 47 46 47 49 52 54 58 60 60 60 60 60 60 60 60 60 60 59 58 57 57 57 58 58 59 59 59 59 60 60 60 61 61 61 61 61 61 61
63 63 63 62 62 62 61 61 61 60 59 59 58 58 58 59 59 59 59 59 59 59 59 59 59 58 58 58 57 57 56 56 56 55 54 54 53 52 52 51 51 50 51 50 50 50 50 50 50 50 50 48 47 47 47 47 47 47 47 46 46 45 45 46 46 45 46 47 48 49 52 56 59 60 60 60 60 60 60 60 60 60 59 58 58 57 58 58 59 59 60 60 60 60 61 61 61 61 61 61 61 61 61
62 62 62 62 62 62 61 61 61 60 59 59 58 58 58 58 58 59 59 59 59 59 59 60 59 59 58 58 57 57 56 56 56 55 55 54 54 53 53 52 52 51 52 51 51 51 51 51 52 52 52 51 50 49 48 48 47 47 47 47 47 46 45 45 46 46 47 48 49 49 50 52 55 58 60 60 60 60 60 60 60 59 59 59 58 58 58 58 59 59 59 60 60 60 60 61 61 61 61 61 61 61 61
62 62 62 62 62 62 61 61 61 60 59 58 58 57 58 58 58 58 58 58 59 59 59 60 60 60 59 58 58 57 57 56 56 55 55 54 54 54 54 53 53 52 52 52 52 52 52 52 53 53 52 52 52 51 50 50 49 48 48 47 47 47 46 47 47 48 49 50 50 50 50 50 51 53 55 57 58 58 59 59 59 59 59 59 59 59 59 59 59 59 59 59 59 60 60 60 60 60 61 61 61 61 61
61 61 61 61 61 61 61 61 61 60 60 59 58 57 57 57 57 58 58 58 58 58 58 60 60 60 60 59 58 58 58 57 57 56 56 55 55 55 55 55 54 54 53 53 53 53 53 53 53 53 52 52 52 52 52 52 51 50 48 47 47 47 47 48 49 49 50 50 51 51 50 50 49 49 50 52 52 54 55 57 58 58 59 59 59 59 59 59 59 58 58 58 58 59 59 60 60 60 60 60 60 60 61
61 61 61 61 61 61 61 61 61 61 60 59 58 57 57 57 57 57 57 57 57 57 58 59 60 60 61 60 59 59 59 59 59 58 57 56 56 56 56 55 55 54 54 53 53 52 52 52 52 52 52 52 52 52 51 52 51 50 49 48 47 47 47 48 49 50 50 51 50 50 50 49 49 48 48 49 49 50 51 53 56 58 58 59 59 60 59 59 59 58 57 57 58 58 59 59 59 59 60 60 60 60 60
61 60 60 60 61 61 61 61 61 61 60 59 58 58 57 57 57 57 57 57 57 57 58 59 59 60 60 60 59 59 59 59 59 59 58 57 56 56 56 55 54 54 53 53 52 52 52 51 51 51 51 51 51 51 50 50 50 50 49 48 47 47 46 47 49 50 51 51 50 49 49 49 48 48 48 49 49 49 50 51 53 56 58 59 59 60 60 60 59 58 57 57 57 57 58 58 59 59 59 60 60 60 61
61 60 60 60 60 61 61 61 61 61 61 60 59 58 58 57 57 56 57 57 57 57 57 58 59 59 59 59 59 59 59 60 60 59 58 57 56 55 55 54 54 53 53 52 52 52 52 51 50 49 49 49 49 49 49 49 49 49 48 48 47 47 45 45 47 48 50 49 49 48 48 48 48 48 48 49 49 49 49 50 52 54 57 59 59 59 60 60 60 59 58 57 56 56 57 57 58 59 59 60 60 61 61
60 60 59 60 60 61 61 61 61 61 61 60 59 58 58 58 57 57 57 56 56 56 56 57 58 58 58 57 57 58 58 59 59 59 57 56 55 54 53 53 53 52 52 52 52 52 52 50 49 48 47 47 47 47 47 48 48 48 48 47 47 46 44 43 43 44 47 47 47 47 48 48 49 49 49 49 49 49 49 50 52 53 55 56 57 58 59 59 59 59 58 57 56 56 56 56 57 58 59 60 60 61 61
60 59 59 59 60 60 61 61 61 61 61 61 60 59 58 58 57 57 56 56 56 56 56 56 56 57 56 56 56 57 58 58 58 58 56 56 54 53 52 52 52 52 51 51 51 51 50 48 47 46 45 45 46 46 47 47 47 47 47 47 46 44 43 42 41 42 43 45 46 47 48 49 49 50 50 50 50 50 50 51 52 52 53 54 55 56 56 56 58 59 59 58 56 55 55 56 57 58 59 60 60 61 61
60 59 59 59 59 60 60 61 61 61 61 61 60 59 59 58 57 57 56 55 55 55 55 55 55 55 55 55 55 56 56 57 58 57 56 56 55 54 52 51 50 49 48 47 48 49 48 47 46 45 44 43 44 45 46 46 46 46 45 45 44 43 42 42 42 43 44 45 46 47 49 49 50 50 51 50 50 50 51 51 52 52 52 52 53 54 55 56 57 58 59 58 57 56 55 56 57 58 59 60 60 61 61
59 59 58 59 59 59 60 60 61 61 61 61 60 60 59 58 57 57 56 56 55 54 54 54 54 54 54 54 53 54 56 56 57 56 56 55 54 53 52 50 48 47 45 43 43 44 47 46 46 45 44 43 43 43 44 45 45 44 44 43 42 42 42 43 44 46 47 46 47 47 49 49 50 50 51 51 51 51 52 52 52 52 52 52 53 54 54 56 57 59 59 58 57 56 56 56 57 58 59 60 60 61 61
59 59 58 58 58 59 60 60 60 61 61 61 60 60 60 59 57 57 56 56 55 54 54 54 54 53 53 52 52 52 54 56 56 56 55 54 53 52 51 49 48 47 45 41 38 37 41 43 44 44 44 44 43 43 43 43 43 43 43 42 42 43 43 45 46 47 47 46 46 47 48 49 50 51 51 51 52 52 52 52 52 52 52 52 53 53 53 55 56 58 58 57 57 56 56 56 57 58 59 59 60 60 60
59 58 58 58 58 59 59 60 60 61 61 61 60 60 60 59 58 57 56 56 55 55 55 54 54 53 53 52 52 52 53 54 55 55 54 53 52 51 49 49 48 47 44 41 38 35 32 40 43 42 43 43 43 42 43 43 43 43 44 43 43 44 45 46 47 47 46 46 46 47 47 48 50 51 51 52 52 52 52 52 52 53 53 53 53 54 55 56 56 56 56 56 56 56 56 56 57 58 58 59 59 59 59
60 58 58 58 58 58 59 59 60 60 61 60 60 60 61 60 59 58 57 56 56 55 55 55 54 53 53 52 51 51 52 52 53 54 54 54 53 52 50 48 47 46 43 42 40 38 35 38 39 40 42 43 43 42 42 43 43 44 46 46 45 45 45 46 46 46 46 46 47 49 49 50 50 50 51 52 52 52 53 53 53 53 53 53 53 53 53 54 54 54 54 54 54 55 55 56 57 57 58 58 59 59 59
60 58 58 57 58 58 59 59 59 60 60 60 60 60 61 61 60 59 58 57 56 56 55 55 54 54 53 52 52 51 51 52 52 53 54 54 54 54 52 49 47 45 43 42 39 38 39 39 38 38 41 44 43 42 42 43 43 45 47 46 45 45 46 46 46 46 46 47 48 50 51 52 52 51 51 52 52 52 53 53 53 54 54 54 53 53 52 52 52 52 52 52 52 53 55 56 56 57 58 58 58 58 58
59 58 57 57 57 58 58 59 59 60 60 61 61 61 61 61 61 60 59 57 56 56 56 56 55 54 53 53 52 52 51 51 52 52 54 54 54 54 53 52 50 47 45 44 42 40 39 38 37 37 40 42 43 44 46 44 44 45 45 45 45 44 44 44 44 45 46 47 48 50 52 52 52 52 51 51 52 52 52 53 54 54 54 54 54 53 52 52 52 52 52 52 53 54 54 55 56 56 57 57 58 58 58
58 58 57 57 57 58 58 58 59 60 61 61 61 61 61 61 61 61 60 59 58 57 57 57 56 55 54 53 52 51 51 51 51 52 52 53 53 54 53 52 50 47 46 45 45 43 42 39 38 38 40 39 40 43 46 45 44 44 44 44 44 43 43 42 43 43 45 47 48 50 51 52 52 52 52 52 52 52 53 53 54 55 55 54 54 53 52 52 53 53 53 53 54 54 54 54 55 56 56 57 57 57 57
57 57 57 57 57 58 58 59 59 60 61 61 61 61 60 60 60 61 60 59 59 59 59 58 56 55 54 52 52 51 50 50 51 51 52 52 52 52 52 51 50 47 45 44 44 44 43 42 41 41 40 39 39 40 43 44 45 44 43 43 43 43 43 42 43 44 45 47 49 50 51 51 52 52 52 52 52 53 54 54 55 55 55 54 53 52 52 52 52 52 52 52 53 53 53 54 54 55 56 56 57 57 57
57 57 57 57 58 58 59 59 60 61 61 61 61 61 60 60 60 60 60 60 59 59 59 59 57 55 53 52 51 51 50 50 50 51 51 51 51 52 52 51 50 48 46 45 44 44 43 43 44 44 43 42 41 40 40 42 43 45 44 44 43 43 44 44 45 47 47 48 50 51 51 51 52 52 52 52 52 53 54 55 55 54 54 53 52 52 52 51 51 51 51 52 52 53 53 53 53 54 55 56 56 56 56